AP893 Weather Reports


time (UTC)temp
F
wind
direction
speed
knots
gust
knots
rain 1hr
in
rain 24hr
in
rain mn
in
humidity
%
barometer
mb
20260507064010 53 17 0.0 0.0 0.00 0.00 0.00 100 1021.8
20260507063009 53 17 0.0 0.0 0.00 0.00 0.00 100 1021.8
20260507062009 54 17 0.0 1.7 0.00 0.00 0.00 100 1021.8
20260507060009 54 17 0.0 0.0 0.00 0.00 0.00 100 1021.9
20260507055009 55 17 0.0 0.0 0.00 0.00 0.00 99 1021.8
20260507054009 55 17 0.0 0.0 0.00 0.00 0.00 98 1021.8
20260507052009 55 17 0.0 0.0 0.00 0.00 0.00 96 1021.9
20260507051009 56 17 0.0 0.0 0.00 0.00 0.00 95 1022.1
20260507050010 56 17 0.0 0.0 0.00 0.00 0.00 94 1022.1
20260507044009 57 17 0.0 0.0 0.00 0.00 0.00 92 1022.1
20260507043010 57 17 0.0 0.0 0.00 0.00 0.00 91 1021.9
20260507042010 58 17 0.0 0.0 0.00 0.00 0.00 90 1021.9
20260507041009 58 17 0.0 0.0 0.00 0.00 0.00 89 1021.8
20260507040009 58 17 0.0 0.0 0.00 0.00 0.00 88 1021.7
20260507035009 59 17 0.0 0.0 0.00 0.00 0.00 86 1021.6
20260507033011 60 17 0.0 0.0 0.00 0.00 0.00 83 1021.5
20260507031010 62 17 0.0 0.0 0.00 0.00 0.00 77 1021.4
20260507025009 64 17 0.0 0.0 0.00 0.00 0.00 74 1021.3
20260507024010 64 17 0.0 0.0 0.00 0.00 0.00 72 1021.1
20260507022010 66 17 0.0 0.0 0.00 0.00 0.00 69 1021.0
20260507021010 66 10 0.9 6.1 0.00 0.00 0.00 67 1021.0
20260507020009 66 257 0.0 0.0 0.00 0.00 0.00 65 1021.0
20260507015010 67 257 0.0 4.3 0.00 0.00 0.00 64 1021.0
20260507014009 67 352 0.0 5.2 0.00 0.00 0.00 62 1021.1
20260507013010 68 12 0.9 4.3 0.00 0.00 0.00 61 1021.1
20260507012010 68 326 1.7 7.0 0.00 0.00 0.00 61 1021.0
20260507011009 68 340 2.6 6.1 0.00 0.00 0.00 60 1021.1
20260507010010 68 346 0.0 0.0 0.00 0.00 0.00 60 1021.0
20260507005010 68 349 1.7 8.7 0.00 0.00 0.00 59 1020.8
20260507003010 69 339 0.0 0.0 0.00 0.00 0.00 57 1020.7
20260507002010 70 339 0.9 6.1 0.00 0.00 0.00 56 1020.8
20260507001010 70 345 0.0 7.0 0.00 0.00 0.00 56 1020.8
20260507000009 71 282 3.5 7.8 0.00 0.00 0.00 54 1020.7
20260506235010 70 252 0.9 5.2 0.00 0.00 0.00 56 1020.8
20260506233009 72 323 2.6 7.0 0.00 0.00 0.00 52 1020.8
20260506232010 71 336 0.9 5.2 0.00 0.00 0.00 55 1020.8
20260506231010 71 13 1.7 7.0 0.00 0.00 0.00 53 1021.0
20260506230009 71 1 1.7 7.8 0.00 0.00 0.00 54 1021.2
20260506225009 70 112 1.7 6.1 0.00 0.00 0.00 54 1021.2
20260506224010 70 330 3.5 7.8 0.00 0.00 0.00 55 1021.3
20260506223010 71 0 6.1 8.7 0.00 0.00 0.00 52 1021.3
20260506222010 70 0 0.0 6.1 0.00 0.00 0.00 55 1021.4
20260506221010 69 345 4.3 7.8 0.00 0.00 0.00 55 1021.5
20260506220009 70 300 2.6 6.1 0.00 0.00 0.00 55 1021.5
20260506215010 70 280 0.0 7.8 0.00 0.00 0.00 56 1021.6
20260506214009 70 280 0.9 5.2 0.00 0.00 0.00 54 1021.8
20260506213010 70 268 1.7 7.0 0.00 0.00 0.00 53 1021.9
20260506212009 69 283 0.9 7.0 0.00 0.00 0.00 56 1021.9
20260506211010 68 41 0.0 8.7 0.00 0.00 0.00 59 1021.9
20260506205009 68 357 2.6 7.8 0.00 0.00 0.00 59 1022.1
20260506204010 68 334 5.2 7.8 0.00 0.00 0.00 58 1022.1
20260506203009 67 322 2.6 7.8 0.00 0.00 0.00 59 1022.1
20260506202009 67 315 2.6 10.4 0.00 0.00 0.00 61 1022.1
20260506200010 66 224 0.0 8.7 0.00 0.00 0.00 61 1022.3
20260506195010 66 302 1.7 7.0 0.00 0.00 0.00 61 1022.3
20260506194009 67 342 0.9 8.7 0.00 0.00 0.00 60 1022.3
20260506193009 67 136 1.7 6.1 0.00 0.00 0.00 60 1022.4
20260506192013 67 309 0.0 6.1 0.00 0.00 0.00 60 1022.5
20260506191009 66 314 2.6 7.0 0.00 0.00 0.00 61 1022.5
20260506190010 65 175 2.6 7.0 0.00 0.00 0.00 65 1022.6
20260506185009 65 322 4.3 7.0 0.00 0.00 0.00 64 1022.5
20260506183010 62 280 2.6 6.1 0.00 0.00 0.00 70 1022.5
20260506182010 62 20 1.7 8.7 0.00 0.00 0.00 69 1022.6
20260506181010 64 20 2.6 7.0 0.00 0.00 0.00 64 1022.5
20260506180009 63 291 1.7 7.0 0.00 0.00 0.00 67 1022.4
20260506175009 63 165 0.9 6.1 0.00 0.00 0.00 67 1022.3
20260506174010 62 343 5.2 8.7 0.00 0.00 0.00 67 1022.3
20260506173010 61 345 2.6 7.0 0.00 0.00 0.00 68 1022.3
20260506172009 61 351 1.7 7.0 0.00 0.00 0.00 70 1022.3
20260506170010 62 350 4.3 7.8 0.00 0.00 0.00 69 1022.2
20260506164009 60 48 0.0 1.7 0.00 0.00 0.00 69 1022.1
20260506163009 60 150 0.0 0.9 0.00 0.00 0.00 70 1022.1
20260506161009 58 150 0.0 0.0 0.00 0.00 0.00 74 1021.9
20260506160009 58 150 0.0 2.6 0.00 0.00 0.00 77 1021.9
20260506152010 55 144 1.7 4.3 0.00 0.01 0.00 100 1022.1
20260506151009 53 223 0.0 4.3 0.00 0.01 0.00 100 1022.1
20260506150009 53 199 0.0 0.0 0.00 0.01 0.00 100 1022.1
20260506145010 51 199 0.0 0.0 0.00 0.01 0.00 100 1022.1
20260506143011 49 199 0.0 0.0 0.00 0.01 0.00 100 1021.8
20260506141009 48 199 0.0 0.0 0.00 0.01 0.00 100 1021.6
20260506135010 47 199 0.0 0.0 0.00 0.01 0.00 100 1021.3
20260506134010 47 199 0.0 0.0 0.00 0.01 0.00 100 1021.2
20260506133010 47 199 0.0 0.0 0.00 0.01 0.00 100 1021.1
20260506130009 48 199 0.0 0.0 0.00 0.01 0.00 100 1021.1
20260506124010 49 199 0.0 0.0 0.00 0.01 0.00 100 1020.8
20260506123010 49 199 0.0 0.0 0.00 0.01 0.00 100 1020.7
20260506121009 50 199 0.0 0.0 0.00 0.01 0.00 100 1020.6
20260506115010 51 199 0.0 0.0 0.00 0.01 0.00 100 1020.6
20260506113011 51 199 0.0 0.0 0.00 0.01 0.00 100 1020.6
20260506112010 51 199 0.0 0.0 0.00 0.01 0.00 100 1020.6
20260506111009 51 199 0.0 0.0 0.00 0.01 0.00 100 1020.6
20260506110009 51 199 0.0 0.0 0.00 0.01 0.00 100 1020.5
20260506105009 50 199 0.0 0.0 0.00 0.01 0.00 100 1020.6
20260506104010 50 199 0.0 0.0 0.00 0.01 0.00 100 1020.6
20260506103010 50 199 0.0 0.0 0.00 0.01 0.00 100 1020.6
20260506102009 50 199 0.0 0.0 0.00 0.01 0.00 100 1020.5
20260506101010 50 199 0.0 0.0 0.00 0.01 0.00 100 1020.4
20260506100010 50 199 0.0 0.0 0.00 0.02 0.00 100 1020.4
20260506095010 50 199 0.0 0.0 0.00 0.02 0.00 100 1020.4
20260506094009 50 199 0.0 0.0 0.00 0.02 0.00 100 1020.3
20260506093009 49 199 0.0 0.0 0.00 0.02 0.00 100 1020.3
20260506092009 49 199 0.0 0.0 0.00 0.03 0.00 100 1020.3
20260506091011 49 199 0.0 0.0 0.00 0.03 0.00 100 1020.2
20260506090010 49 199 0.0 0.0 0.00 0.03 0.00 100 1020.2
20260506085009 49 199 0.0 0.0 0.00 0.03 0.00 100 1020.0
20260506084009 50 199 0.0 0.0 0.00 0.03 0.00 100 1019.6
20260506083009 50 199 0.0 0.0 0.00 0.03 0.00 100 1019.7
20260506082010 50 199 0.0 0.0 0.00 0.04 0.00 100 1019.7
20260506072009 50 7 0.0 0.0 0.00 0.07 0.00 100 1020.5
20260506071009 50 7 0.0 0.0 0.00 0.07 0.00 100 1020.2